2019-022C (44484 NORAD) Tracking and Keplerian Element Data

This shows tracking and keplerian element data for the satellite.

Feedback or suggestion? Click here.




ElementValue
Catalog44484
Name2019-022C
Epoch Orbit148
Epoch Day228.93856945
Epoch Year2019
RAAN61.4725
Inclination51.6445
Eccentricity0.0009066
Argument of Perigee292.2762
Mean Anonmoly67.7254
Mean Motion15.29201564
Decay Rate1.174E-05
L11 44484U 19022C 19228.93856945 .00001174 00000-0 53347-4 0 9998
L22 44484 51.6445 61.4725 0009066 292.2762 67.7254 15.29201564 1486

Live tracking and technical data element details for 2019-022C (NORAD 44484). 2019-022C can be tracked NOW for your location showing map with azimuth and elevation plus other details from your city location.

Track the satellite on the map from your city or location and see movement details for azimuth, elevation, latitude, longitude, range, height, and movement on the map or in text.







IsCatalogInMostPopularTable: catalog: 44484, numindb: 4
Update: records affected: 1



GetName: 44484 2019-022C

Hit Count: updated at: Wed, 21 Aug 2019 12:12:09 GMT